YAOGAN 9A

导读

YAOGAN 9A(遥感九号A)是中国研制的遥感卫星,于北京时间2010年3月5日在酒泉卫星发射中心,由长征四号丙运载火箭发射入轨,属于中国遥感卫星系列。该卫星主要服务于科学试验研究、国土资源普查、农作物估产以及防灾减灾等领域,可为国民经济建设提供空间遥感信息支撑,也推动了我国空间遥感技术的应用发展。

Basic Information
目录编号:
36413
目录名称:
YAOGAN 9A
国际标识:
2010-009A
轨道中心:
EARTH
卫星名称:
YAOGAN 9A
卫星全名:
--
卫星状态:
在轨 (已飞行5946 天)
发射日期:
2010-03-05 UTC
国别 :
中国 (CN)
星等 :
--
Orbit Information
数据来源 国际轨道数据 AOE轨道数据
星历时间 2026-06-15T05:30:30+0800
9小时前
查看轨道信息
2026-06-15T08:00:00+0800
7小时前
查看轨道信息
半长轴 7466.248km 7466.248km
偏心率 0.053719 0.0537261
轨道倾角 63.366° 63.365°
近地点辐角 21.739° 21.760°
升交点赤经 4.148° 3.878°
平近点角 340.553° 123.484°
近地点 687.031km 686.978km
远地点 1489.191km 1489.244km
周期 107.007分钟 107.007分钟
每日圈数 13.45703 13.457029
Detailed Information
使用方式:
暂无
2D Orbit Map
3D Orbit Map
Orbit Altitude Analysis Chart
Orbit Inclination Analysis Chart
Orbit Comprehensive Analysis Chart
View Comprehensive Chart